Home > Weather > Albury > Past weeks

Flag for Australia Past Weather in Albury, New South Wales, Australia — Yesterday and Last 2 Weeks

Now
45 °F

Mostly cloudy.


Feels Like: 45 °F
Forecast: 34 / 50 °F
Wind: No wind

Location: Albury Airport

Current Time: Jun 28, 2016 at 2:48:10 AM

Latest Report: Jun 28, 2016 at 2:03 AM


Visibility: N/A

Pressure: 30.21 "Hg

Humidity: 100%

Dew Point: 45 °F

Location of AlburyLocation

Past Weather in Albury — Graph

°F

Albury Temperature Yesterday

Maximum temperature yesterday: 50 °F (at 2:00 PM)
Minimum temperature yesterday: 36 °F (at 8:00 AM)
Average temperature yesterday: 43 °F

High & Low Weather Summary for the Past Weeks

 TemperatureHumidityPressure
High63 °F (Jun 18, 2:00 PM)100% (Jun 13, 2:00 AM)30.69 "Hg (Jun 13, 2:00 AM)
Low30 °F (Jun 25, 7:04 AM)55% (Jun 14, 3:00 PM)29.45 "Hg (Jun 20, 2:00 PM)
Average47 °F89%30.03 "Hg
* Reported Jun 13 1:00 AM — Jun 28 1:00 AM, Albury, Weather by CustomWeather, © 2016

Note: Actual official high and low records may vary slightly from our data, if they occured in-between our weather recording intervals... More about our weather records

Advertising

Albury Weather History for the Previous 24 Hours

Scroll right to see more
 ConditionsComfort  
Time TempWeatherWind HumidityBarometerVisibility
1:00 AM
Tue, Jun 28
45 °FMostly cloudy.No wind100%30.18 "HgN/A
12:00 AM45 °FOvercast.No wind93%30.18 "HgN/A
11:00 PM
Mon, Jun 27
45 °FOvercast.5 mph93%30.18 "HgN/A
10:00 PM45 °FOvercast.3 mph93%30.18 "HgN/A
9:00 PM45 °FMostly cloudy.No wind87%30.15 "HgN/A
8:00 PM46 °FOvercast.3 mph82%30.15 "HgN/A
7:00 PM46 °FOvercast.3 mph82%30.15 "HgN/A
6:00 PM46 °FOvercast.5 mph82%30.12 "HgN/A
5:00 PM48 °FMostly cloudy.8 mph76%30.09 "HgN/A
4:00 PM48 °FOvercast.9 mph71%30.07 "HgN/A
3:00 PM50 °FMore clouds than sun.13 mph67%30.07 "HgN/A
2:00 PM50 °FPartly sunny.10 mph71%30.04 "HgN/A
1:00 PM46 °FMostly cloudy.12 mph82%30.07 "HgN/A
12:00 PM46 °FMore clouds than sun.10 mph76%30.07 "HgN/A
11:00 AM45 °FScattered clouds.7 mph93%30.09 "HgN/A
10:00 AM39 °FMostly cloudy.6 mph100%30.09 "Hg6 mi
9:00 AM37 °FLow clouds.No wind100%30.09 "Hg0 mi
8:00 AM36 °FLow clouds.6 mph100%30.07 "Hg0 mi
7:00 AM37 °FLow clouds.3 mph100%30.07 "Hg0 mi
6:00 AM37 °FLow clouds.5 mph100%30.04 "Hg0 mi
5:00 AM37 °FLow clouds.No wind100%30.04 "Hg3 mi
4:00 AM37 °FPartly cloudy.No wind100%30.04 "Hg0 mi
3:00 AM39 °FOvercast.No wind100%30.04 "HgN/A
2:00 AM39 °FMostly cloudy.No wind100%30.04 "HgN/A
Weather by CustomWeather, © 2016

See weather overviewHow to use our weather pages